When you browse on this site, cookies collect data to enhance your experience and personalize the content and advertising you see.
Visit our Privacy Policy to learn more. By continuing to use the site, you agree to this use of cookies and data.
  • In United Kingdom
  • List of Countries
  • For 7 days
  • Water Temperature
  • Weather Map
  • Weather Widgets
  • user-avatar
    Login

    Hourly Weather Kalgoorlie

    Today, 26 January, Sunday

    Time Temperature Precipitation Wind Pressure Humidity
    00:00 +30°C° 0 mm 4 mps 728 mmHg 30%
    01:00 +29°C° 0 mm 4 mps 728 mmHg 34%
    02:00 +28°C° 0 mm 4 mps 728 mmHg 38%
    03:00 +27°C° 0 mm 4 mps 728 mmHg 39%
    04:00 +27°C° 0 mm 4 mps 729 mmHg 41%
    05:00 +26°C° 0 mm 4 mps 729 mmHg 42%
    06:00 +27°C° 0 mm 4 mps 729 mmHg 39%
    07:00 +29°C° 0 mm 4 mps 730 mmHg 37%
    08:00 +30°C° 0 mm 5 mps 730 mmHg 35%
    09:00 +33°C° 0 mm 5 mps 730 mmHg 31%
    10:00 +34°C° 0 mm 4 mps 730 mmHg 27%
    11:00 +36°C° 0 mm 4 mps 729 mmHg 23%
    12:00 +37°C° 0 mm 3 mps 729 mmHg 21%
    13:00 +37°C° 0 mm 2 mps 729 mmHg 19%
    14:00 +37°C° 0 mm 1 mps 728 mmHg 16%
    15:00 +39°C° 0 mm 1 mps 728 mmHg 16%
    16:00 +39°C° 0 mm 1 mps 728 mmHg 15%
    17:00 +39°C° 0 mm 2 mps 727 mmHg 15%
    18:00 +38°C° 0 mm 2 mps 728 mmHg 15%
    19:00 +38°C° 0 mm 3 mps 728 mmHg 16%
    20:00 +37°C° 0 mm 4 mps 728 mmHg 17%
    21:00 +36°C° 0 mm 5 mps 728 mmHg 19%
    22:00 +35°C° 0 mm 5 mps 728 mmHg 21%
    23:00 +34°C° 0 mm 6 mps 728 mmHg 22%

    Tomorrow, 27 January, Monday

    Time Temperature Precipitation Wind Pressure Humidity
    00:00 +33°C° 0 mm 5 mps 728 mmHg 23%
    01:00 +33°C° 0 mm 4 mps 728 mmHg 25%
    02:00 +31°C° 0 mm 3 mps 728 mmHg 26%
    03:00 +30°C° 0 mm 3 mps 728 mmHg 27%
    04:00 +29°C° 0 mm 3 mps 728 mmHg 29%
    05:00 +28°C° 0 mm 3 mps 728 mmHg 31%
    06:00 +30°C° 0 mm 4 mps 729 mmHg 28%
    07:00 +33°C° 0 mm 5 mps 729 mmHg 24%
    08:00 +34°C° 0 mm 6 mps 730 mmHg 21%
    09:00 +36°C° 0 mm 6 mps 730 mmHg 19%
    10:00 +39°C° 0 mm 5 mps 730 mmHg 17%
    11:00 +41°C° 0 mm 5 mps 730 mmHg 15%
    12:00 +41°C° 0 mm 4 mps 729 mmHg 14%
    13:00 +42°C° 0 mm 3 mps 728 mmHg 13%
    14:00 +43°C° 0 mm 3 mps 727 mmHg 12%
    15:00 +42°C° 0 mm 2 mps 727 mmHg 11%
    16:00 +42°C° 0 mm 2 mps 727 mmHg 11%
    17:00 +42°C° 0 mm 2 mps 727 mmHg 11%
    18:00 +42°C° 0 mm 3 mps 727 mmHg 11%
    19:00 +40°C° 0 mm 3 mps 727 mmHg 12%
    20:00 +40°C° 0 mm 4 mps 727 mmHg 13%
    21:00 +39°C° 0 mm 5 mps 727 mmHg 15%
    22:00 +38°C° 0 mm 6 mps 727 mmHg 16%
    23:00 +36°C° 0 mm 7 mps 727 mmHg 18%

    Day after tomorrow, 28 January, Tuesday

    Time Temperature Precipitation Wind Pressure Humidity
    00:00 +36°C° 0 mm 7 mps 727 mmHg 19%
    01:00 +35°C° 0 mm 7 mps 726 mmHg 20%
    02:00 +34°C° 0 mm 7 mps 726 mmHg 21%
    03:00 +34°C° 0 mm 6 mps 726 mmHg 22%
    04:00 +33°C° 0 mm 5 mps 726 mmHg 24%
    05:00 +32°C° 0 mm 5 mps 726 mmHg 25%
    06:00 +34°C° 0 mm 6 mps 727 mmHg 23%
    07:00 +35°C° 0 mm 7 mps 727 mmHg 22%
    08:00 +37°C° 0 mm 8 mps 728 mmHg 20%
    09:00 +39°C° 0 mm 8 mps 728 mmHg 17%
    10:00 +41°C° 0 mm 8 mps 728 mmHg 15%
    11:00 +44°C° 0 mm 7 mps 728 mmHg 13%
    12:00 +45°C° 0 mm 7 mps 727 mmHg 12%
    13:00 +46°C° 0 mm 6 mps 726 mmHg 11%
    14:00 +46°C° 0 mm 5 mps 726 mmHg 10%
    15:00 +46°C° 0 mm 5 mps 725 mmHg 10%
    16:00 +46°C° 0 mm 5 mps 725 mmHg 9%
    17:00 +46°C° 0 mm 5 mps 725 mmHg 9%
    18:00 +45°C° 0 mm 5 mps 725 mmHg 10%
    19:00 +42°C° 0 mm 5 mps 725 mmHg 10%
    20:00 +41°C° 0 mm 5 mps 725 mmHg 11%
    21:00 +40°C° 0 mm 6 mps 725 mmHg 11%
    22:00 +39°C° 0 mm 7 mps 725 mmHg 11%
    23:00 +38°C° 0 mm 8 mps 724 mmHg 11%

    29 January, Wednesday

    Time Temperature Precipitation Wind Pressure Humidity
    00:00 +38°C° 0 mm 8 mps 724 mmHg 11%
    01:00 +37°C° 0 mm 8 mps 724 mmHg 11%
    02:00 +35°C° 0 mm 8 mps 723 mmHg 10%
    03:00 +35°C° 0 mm 8 mps 723 mmHg 11%
    04:00 +34°C° 0 mm 7 mps 723 mmHg 11%
    05:00 +33°C° 0 mm 7 mps 723 mmHg 11%
    06:00 +35°C° 0 mm 7 mps 723 mmHg 11%
    07:00 +37°C° 0 mm 8 mps 724 mmHg 10%
    08:00 +39°C° 0 mm 8 mps 724 mmHg 10%
    09:00 +41°C° 0 mm 7 mps 724 mmHg 9%
    10:00 +44°C° 0 mm 7 mps 723 mmHg 9%
    11:00 +45°C° 0 mm 6 mps 723 mmHg 8%
    12:00 +46°C° 0 mm 5 mps 722 mmHg 8%
    13:00 +45°C° 0 mm 4 mps 721 mmHg 8%
    14:00 +46°C° 0 mm 3 mps 720 mmHg 8%
    15:00 +47°C° 0 mm 4 mps 720 mmHg 8%
    16:00 +47°C° 0 mm 4 mps 719 mmHg 7%
    17:00 +47°C° 0 mm 4 mps 719 mmHg 7%
    18:00 +45°C° 0 mm 4 mps 719 mmHg 9%
    19:00 +43°C° 0 mm 3 mps 719 mmHg 10%
    20:00 +42°C° 0 mm 3 mps 719 mmHg 11%
    21:00 +38°C° 0 mm 4 mps 719 mmHg 20%
    22:00 +35°C° 0 mm 6 mps 720 mmHg 29%
    23:00 +32°C° 0 mm 8 mps 720 mmHg 38%

    30 January, Thursday

    Time Temperature Precipitation Wind Pressure Humidity
    00:00 +29°C° 0 mm 9 mps 720 mmHg 44%
    01:00 +27°C° 0 mm 9 mps 720 mmHg 51%
    02:00 +23°C° 0 mm 9 mps 720 mmHg 57%
    03:00 +22°C° 0 mm 9 mps 720 mmHg 59%
    04:00 +21°C° 0 mm 9 mps 721 mmHg 62%
    05:00 +19°C° 0 mm 9 mps 721 mmHg 65%
    06:00 +21°C° 0 mm 9 mps 722 mmHg 63%
    07:00 +21°C° 0 mm 8 mps 722 mmHg 61%
    08:00 +22°C° 0 mm 8 mps 723 mmHg 60%
    09:00 +24°C° 0 mm 8 mps 723 mmHg 53%
    10:00 +27°C° 0 mm 8 mps 723 mmHg 46%
    11:00 +29°C° 0 mm 7 mps 723 mmHg 40%
    12:00 +30°C° 0 mm 6 mps 722 mmHg 36%
    13:00 +32°C° 0 mm 5 mps 722 mmHg 33%
    14:00 +33°C° 0 mm 4 mps 722 mmHg 30%
    15:00 +34°C° 0 mm 4 mps 722 mmHg 28%
    16:00 +34°C° 0 mm 4 mps 722 mmHg 26%
    17:00 +34°C° 0 mm 4 mps 722 mmHg 25%
    18:00 +32°C° 0 mm 7 mps 722 mmHg 30%
    19:00 +28°C° 0 mm 9 mps 722 mmHg 36%
    20:00 +26°C° 0 mm 12 mps 723 mmHg 41%
    21:00 +23°C° 0 mm 11 mps 723 mmHg 47%
    22:00 +21°C° 0 mm 11 mps 724 mmHg 53%
    23:00 +18°C° 0 mm 10 mps 724 mmHg 58%

    31 January, Friday

    Time Temperature Precipitation Wind Pressure Humidity
    00:00 +17°C° 0 mm 9 mps 724 mmHg 60%
    01:00 +17°C° 0 mm 9 mps 724 mmHg 63%
    02:00 +16°C° 0 mm 8 mps 724 mmHg 65%
    03:00 +15°C° 0 mm 8 mps 725 mmHg 65%
    04:00 +15°C° 0 mm 7 mps 725 mmHg 65%
    05:00 +15°C° 0 mm 7 mps 725 mmHg 65%
    06:00 +16°C° 0 mm 6 mps 726 mmHg 59%
    07:00 +17°C° 0 mm 6 mps 726 mmHg 53%
    08:00 +19°C° 0 mm 6 mps 727 mmHg 47%
    09:00 +21°C° 0 mm 6 mps 726 mmHg 42%
    10:00 +23°C° 0 mm 6 mps 726 mmHg 37%
    11:00 +26°C° 0 mm 6 mps 726 mmHg 33%
    12:00 +28°C° 0 mm 5 mps 726 mmHg 31%
    13:00 +29°C° 0 mm 4 mps 725 mmHg 29%
    14:00 +32°C° 0 mm 4 mps 725 mmHg 27%
    15:00 +31°C° 0 mm 3 mps 725 mmHg 26%
    16:00 +32°C° 0 mm 2 mps 725 mmHg 25%
    17:00 +32°C° 0 mm 1 mps 724 mmHg 24%
    18:00 +31°C° 0 mm 3 mps 725 mmHg 25%
    19:00 +32°C° 0 mm 4 mps 725 mmHg 26%
    20:00 +30°C° 0 mm 5 mps 725 mmHg 26%
    21:00 +28°C° 0 mm 7 mps 726 mmHg 31%
    22:00 +26°C° 0 mm 10 mps 726 mmHg 36%
    23:00 +23°C° 0 mm 12 mps 726 mmHg 41%
    Show more